Eufaula, AL

9:24 PM CST on December 02, 2016 (GMT -0600)
Weedon

Weather History for KEUF - October, 2011

Change the Weather History Date:

Wednesday, October 12, 2011

  Actual Average (KLSF) Record (KLSF)
Temperature  
Mean Temperature 66 °F -  
Max Temperature 70 °F 76 °F 89 °F (2014)
Min Temperature 63 °F 52 °F 37 °F (2000)
Cooling Degree Days 2    
Growing Degree Days 16 (Base 50)    
Moisture  
Dew Point 62 °F    
Average Humidity 86    
Maximum Humidity 93    
Minimum Humidity 75    
Precipitation  
Precipitation 0.02 in - - ()
Sea Level Pressure  
Sea Level Pressure 29.82 in    
Wind  
Wind Speed 1 mph (NW)    
Max Wind Speed 5 mph    
Max Gust Speed -    
Visibility 8 miles    
Events Rain    
Averages and records for this station are not official NWS values.
T = Trace of Precipitation, MM = Missing Value Source: NWS Daily Summary

Daily Weather History Graph

Daily Weather History Graph

Search for Another Location

Airport or City:

Trip Planner

Search our weather history database for the weather conditions in past years. The results will help you decide how hot, cold, wet, or windy it might be!

Date:

Astronomy

Oct. 12, 2011 Rise Set
Actual Time 6:41 AM CDT 6:11 PM CDT
Civil Twilight 6:17 AM CDT 6:36 PM CDT
Nautical Twilight 5:48 AM CDT 7:04 PM CDT
Astronomical Twilight 5:20 AM CDT 7:33 PM CDT
Moon 6:20 PM CDT (10/12) 7:09 AM CDT (10/12)
Length of Visible Light 12h 19m
Length of Day
11h 30m
Full, 100% of the Moon is Illuminated
Oct 12
Full
Oct 19
Last Quarter
Oct 26
New
Nov 2
First Quarter
Nov 10
Full

Hourly Weather History & Observations

Time (CDT) Temp. Dew Point Humidity Pressure Visibility Wind Dir Wind Speed Gust Speed Precip Events Conditions
12:58 AM 64.0 °F 61.0 °F 90% 29.83 in 4.0 mi Calm Calm - N/A   Overcast
1:07 AM 64.0 °F 61.0 °F 90% 29.83 in 2.5 mi Calm Calm - 0.01 in Rain Light Rain
1:50 AM 64.0 °F 61.0 °F 90% 29.83 in 2.5 mi Calm Calm - 0.01 in   Overcast
1:58 AM 63.0 °F 61.0 °F 93% 29.82 in 2.5 mi Calm Calm - 0.01 in   Overcast
2:16 AM 64.0 °F 61.0 °F 90% 29.83 in 3.0 mi Calm Calm - N/A   Overcast
2:28 AM 64.0 °F 61.0 °F 90% 29.83 in 2.5 mi Calm Calm - N/A   Overcast
2:36 AM 63.0 °F 61.0 °F 93% 29.83 in 3.0 mi Calm Calm - N/A   Overcast
2:58 AM 63.0 °F 61.0 °F 93% 29.81 in 4.0 mi North 3.5 mph - N/A   Overcast
3:58 AM 64.0 °F 61.0 °F 90% 29.82 in 5.0 mi Calm Calm - N/A   Overcast
4:58 AM 64.0 °F 61.0 °F 90% 29.84 in 9.0 mi Calm Calm - 0.00 in   Overcast
5:26 AM 64.0 °F 61.0 °F 90% 29.84 in 10.0 mi Calm Calm - N/A   Overcast
5:58 AM 64.0 °F 61.0 °F 90% 29.84 in 10.0 mi Calm Calm - N/A   Overcast
6:58 AM 63.0 °F 60.1 °F 90% 29.84 in 10.0 mi Calm Calm - N/A   Overcast
7:58 AM 63.0 °F 60.1 °F 90% 29.85 in 8.0 mi Variable 3.5 mph - N/A   Overcast
8:58 AM 64.0 °F 60.1 °F 87% 29.86 in 10.0 mi NNE 3.5 mph - N/A   Overcast
9:58 AM 66.9 °F 60.1 °F 79% 29.85 in 10.0 mi Calm Calm - N/A   Overcast
10:24 AM 66.0 °F 61.0 °F 84% 29.86 in 10.0 mi Calm Calm - N/A   Overcast
10:58 AM 66.9 °F 60.1 °F 79% 29.85 in 10.0 mi Calm Calm - N/A   Overcast
11:58 AM 68.0 °F 61.0 °F 78% 29.84 in 10.0 mi Calm Calm - N/A   Overcast
12:58 PM 69.1 °F 61.0 °F 75% 29.82 in 10.0 mi NW 3.5 mph - N/A   Overcast
1:23 PM 69.1 °F 62.1 °F 78% 29.82 in 10.0 mi NW 4.6 mph - N/A   Overcast
1:39 PM 69.1 °F 62.1 °F 78% 29.81 in 10.0 mi WNW 3.5 mph - N/A   Overcast
1:48 PM 69.1 °F 62.1 °F 78% 29.81 in 10.0 mi NW 3.5 mph - N/A   Overcast
2:03 PM 69.1 °F 62.1 °F 78% 29.81 in 10.0 mi West 3.5 mph - N/A   Overcast
2:16 PM 70.0 °F 62.1 °F 76% 29.81 in 10.0 mi Calm Calm - N/A   Overcast
2:25 PM 70.0 °F 62.1 °F 76% 29.80 in 10.0 mi Calm Calm - N/A   Overcast
2:58 PM 70.0 °F 62.1 °F 76% 29.79 in 10.0 mi Calm Calm - N/A   Overcast
3:58 PM 70.0 °F 63.0 °F 78% 29.79 in 10.0 mi Calm Calm - N/A   Overcast
5:03 PM 68.0 °F 64.0 °F 87% 29.79 in 2.5 mi Calm Calm - 0.00 in Rain Light Rain
5:09 PM 68.0 °F 64.0 °F 87% 29.79 in 1.5 mi Calm Calm - 0.01 in Rain Light Rain
5:20 PM 68.0 °F 64.0 °F 87% 29.79 in 1.5 mi Calm Calm - 0.03 in Rain Light Rain
5:25 PM 66.9 °F 63.0 °F 87% 29.79 in 2.0 mi Calm Calm - 0.04 in Rain Light Rain
6:32 PM 66.9 °F 64.0 °F 90% 29.80 in 5.0 mi Calm Calm - 0.01 in Rain Light Rain
6:50 PM 66.9 °F 63.0 °F 87% 29.80 in 4.0 mi NW 3.5 mph - 0.01 in Rain Light Rain
6:58 PM 66.9 °F 63.0 °F 87% 29.79 in 10.0 mi Calm Calm - 0.01 in   Overcast
7:10 PM 66.0 °F 63.0 °F 90% 29.80 in 10.0 mi Calm Calm - N/A   Overcast
7:58 PM 66.9 °F 63.0 °F 87% 29.80 in 10.0 mi Calm Calm - N/A   Overcast
8:58 PM 66.9 °F 63.0 °F 87% 29.81 in 10.0 mi Calm Calm - 0.00 in   Overcast
9:43 PM 66.0 °F 63.0 °F 90% 29.82 in 10.0 mi Calm Calm - N/A   Overcast
9:58 PM 66.0 °F 63.0 °F 90% 29.81 in 10.0 mi Calm Calm - N/A   Overcast
10:58 PM 66.0 °F 63.0 °F 90% 29.80 in 10.0 mi Calm Calm - N/A   Overcast
11:29 PM 66.0 °F 63.0 °F 90% 29.80 in 9.0 mi Calm Calm - N/A   Overcast
11:47 PM 64.9 °F 63.0 °F 93% 29.81 in 8.0 mi Calm Calm - N/A   Overcast
11:58 PM 66.0 °F 63.0 °F 90% 29.80 in 9.0 mi Calm Calm - N/A   Overcast